This demonstration page uses our WeatherBlox Daily Observations layout. Learn more.

Left ArrowRight Arrow

41.86663, -103.66717

Hourly Observations for April 26, 2016

Temp ( °F °C ) Dew Point ( °F °C ) Humidity (%) Winds ( mph kmh ) Pressure ( in mb ) Visibility ( mi km ) Precip ( " mm )
12:53 am 00:53 Cloudy with Light Rain 43 6.1 39 3.9 86 86 ENE 25 41 29.62 1003 4 6 0.04 1.02
1:34 am 01:34 Cloudy with Nearby Thunderstorms 43 6 39 4 87 87 ENE 26 43 29.71 1006 8 13 N/A
1:49 am 01:49 Cloudy with Light Rain 43 6 39 4 87 87 ENE 24 39 29.71 1006 5 8 0.05 1.27
1:53 am 01:53 Cloudy with Rain 42 5.6 39 3.9 89 89 ENE 22 35 29.65 1004 5 8 0.05 1.27
2:48 am 02:48 Cloudy 43 6 37 3 81 81 NE 23 37 29.71 1006 10 16 N/A
2:53 am 02:53 Cloudy 42 5.6 38 3.3 85 85 NE 22 35 29.61 1003 10 16 0.05 1.27
3:41 am 03:41 Cloudy with Nearby Thunderstorms 41 5 37 2.8 86 86 NE 20 31 29.74 1007 5 8 0.10 2.54
3:51 am 03:51 Cloudy with Thunderstorms 41 5 37 3 87 87 ENE 20 31 29.74 1007 5 8 0.12 3.05
3:53 am 03:53 Cloudy with Thunderstorms 41 5 37 2.8 86 86 ENE 17 28 29.64 1004 5 8 0.13 3.30
4:18 am 04:18 Windy with Storms Likely 39 4 37 3 93 93 ENE 26 43 29.74 1007 8 13 N/A
4:27 am 04:27 Cloudy with Nearby Thunderstorms 40 4.4 37 2.8 89 89 ENE 22 35 29.74 1007 6 10 0.05 1.27
4:45 am 04:45 Cloudy with Nearby Thunderstorms 40 4.4 37 2.8 89 89 NE 20 31 29.74 1007 4 6 0.10 2.54
4:53 am 04:53 Cloudy with Light Rain 40 4.4 37 2.8 89 89 NE 20 31 29.62 1003 9 14 0.10 2.54
5:53 am 05:53 Cloudy 39 3.9 35 1.7 86 86 NE 22 35 29.61 1003 10 16 N/A
6:53 am 06:53 Cloudy 39 3.9 35 1.7 86 86 ENE 13 20 29.66 1004 10 16 N/A
7:04 am 07:04 Cloudy 39 4 36 2 87 87 NE 18 30 29.74 1007 10 16 N/A
7:16 am 07:16 Cloudy 39 4 34 1 81 81 NE 21 33 29.74 1007 10 16 N/A
7:29 am 07:29 Cloudy 39 3.9 35 1.7 86 86 NE 23 37 29.74 1007 10 16 N/A
7:53 am 07:53 Cloudy 39 3.9 34 1.1 82 82 NE 28 44 29.62 1003 10 16 N/A
8:09 am 08:09 Cloudy 38 3.3 34 1.1 86 86 NE 31 50 29.74 1007 10 16 N/A
8:43 am 08:43 Cloudy 38 3.3 34 1.1 86 86 NE 26 43 29.74 1007 10 16 N/A
8:53 am 08:53 Cloudy 37 2.8 34 1.1 89 89 NE 26 43 29.68 1005 10 16 N/A
9:33 am 09:33 Cloudy with Light Rain 36 2.2 33 0.6 89 89 NE 16 26 29.77 1008 3 4 0.04 1.02
9:53 am 09:53 Cloudy with Light Rain 37 2.8 34 1.1 89 89 ENE 18 30 29.72 1007 2 3 0.05 1.27
10:01 am 10:01 Cloudy with Light Rain 37 2.8 34 1.1 89 89 ENE 17 28 29.80 1009 3 4 N/A
10:12 am 10:12 Cloudy with Light Rain 37 3 34 1 87 87 ENE 18 30 29.80 1009 2 3 N/A
10:23 am 10:23 Cloudy with Light Rain 38 3.3 35 1.7 89 89 ENE 14 22 29.80 1009 3 4 N/A
10:32 am 10:32 Cloudy with Light Rain 37 3 36 2 93 93 NE 15 24 29.80 1009 3 4 N/A
10:53 am 10:53 Cloudy with Light Rain 38 3.3 35 1.7 89 89 NE 20 31 29.74 1007 3 4 0.01 0.25
10:56 am 10:56 Cloudy with Light Rain 37 3 36 2 93 93 NE 18 30 29.80 1009 3 5 N/A
11:53 am 11:53 Cloudy 40 4.4 36 2.2 86 86 NE 18 30 29.72 1007 7 11 N/A
12:37 pm 12:37 Cloudy 40 4.4 35 1.7 83 83 NNE 15 24 29.77 1008 10 16 N/A
12:53 pm 12:53 Cloudy 39 3.9 35 1.7 86 86 NE 15 24 29.76 1008 10 16 N/A
1:10 pm 13:10 Cloudy with Light Rain 39 4 36 2 87 87 NNE 16 26 29.80 1009 3 4 N/A
1:34 pm 13:34 Cloudy with Light Rain 37 3 36 2 93 93 NNE 15 24 29.83 1010 3 4 N/A
1:41 pm 13:41 Cloudy with Light Snow 38 3.3 36 2.2 93 93 NNE 14 22 29.83 1010 2 3 N/A
1:49 pm 13:49 Cloudy with Light Snow 37 3 36 2 93 93 NNE 15 24 29.83 1010 2 2 N/A
1:53 pm 13:53 Cloudy with Light Snow 39 3.9 36 2.2 89 89 NNE 13 20 29.79 1009 2 3 N/A
1:58 pm 13:58 Cloudy with Light Rain 39 4 36 2 87 87 NNE 13 20 29.80 1009 3 4 N/A
2:14 pm 14:14 Cloudy with Light Rain 39 4 36 2 87 87 NNE 13 20 29.80 1009 3 5 N/A
2:23 pm 14:23 Cloudy with Mist and Fog 39 3.9 36 2.2 89 89 N 13 20 29.85 1011 4 6 0.01 0.25
2:53 pm 14:53 Cloudy 40 4.4 36 2.2 86 86 NNE 15 24 29.79 1009 10 16 0.01 0.25
3:15 pm 15:15 Cloudy 41 5 36 2.2 82 82 NNE 12 19 29.83 1010 10 16 N/A
3:53 pm 15:53 Cloudy 41 5 36 2.2 82 82 NNE 13 20 29.80 1009 10 16 N/A
4:53 pm 16:53 Cloudy 42 5.6 35 1.7 76 76 NNE 10 17 29.82 1010 10 16 N/A
5:53 pm 17:53 Cloudy 41 5 34 1.1 76 76 NNE 9 15 29.84 1011 10 16 N/A
6:53 pm 18:53 Cloudy 41 5 35 1.7 79 79 N 8 13 29.84 1010 10 16 N/A
7:53 pm 19:53 Cloudy 39 3.9 34 1.1 82 82 NNW 7 11 29.85 1011 10 16 N/A
8:53 pm 20:53 Cloudy 38 3.3 34 1.1 86 86 NW 13 20 29.82 1010 10 16 N/A
9:30 pm 21:30 Partly Cloudy 36 2 32 undefined 87 87 NNW 8 13 29.94 1014 10 16 N/A
9:53 pm 21:53 Mostly Clear 34 1.1 31 -0.6 89 89 N 5 7 29.91 1013 10 16 N/A
10:53 pm 22:53 Mostly Cloudy 33 0.6 30 -1.1 89 89 NW 5 7 29.91 1013 10 16 N/A
11:05 pm 23:05 Cloudy 34 1.1 31 -0.6 89 89 N 3 6 30.00 1016 10 16 N/A
11:53 pm 23:53 Cloudy 34 1.1 31 -0.6 89 89 WNW 7 11 29.88 1012 10 16 N/A

Powered by AerisWeather